EW9451 Weather Reports


time (UTC)temp
C
wind
direction
speed
KPH
gust
KPH
rain 1hr
cm
rain 24hr
cm
rain mn
cm
humidity
%
barometer
mb
20260504130528 8 232 1.6 19.3 0.00 0.03 0.03 72 1000.5
20260504110511 6 139 1.6 4.8 0.00 0.00 0.00 86 1000.9
20260504100506 6 165 3.2 8.0 0.00 0.00 0.00 86 1001.0
20260504081557 6 202 3.2 8.0 0.00 0.00 0.00 76 1001.6
20260504081053 6 172 3.2 9.7 0.00 0.00 0.00 76 1001.6
20260504080553 6 134 3.2 6.4 0.00 0.00 0.00 75 1001.6
20260504050530 5 144 3.2 11.3 0.00 0.00 0.00 56 1002.0
20260504045528 5 167 1.6 4.8 0.00 0.00 0.00 57 1002.2
20260504045032 5 195 1.6 4.8 0.00 0.00 0.00 56 1002.2
20260504044526 5 215 0.0 6.4 0.00 0.00 0.00 58 1002.2
20260504044030 5 142 0.0 6.4 0.00 0.00 0.00 58 1002.2
20260504043525 5 165 1.6 4.8 0.00 0.00 0.00 58 1002.2
20260504043025 5 169 0.0 6.4 0.00 0.00 0.00 59 1002.3
20260504042523 5 161 3.2 6.4 0.00 0.00 0.00 59 1002.3
20260504042021 4 175 3.2 9.7 0.00 0.00 0.00 61 1002.3
20260504041519 3 113 3.2 9.7 0.00 0.00 0.00 62 1002.3
20260504041018 3 162 1.6 6.4 0.00 0.00 0.00 64 1002.3
20260504040517 3 145 1.6 4.8 0.00 0.00 0.00 66 1002.3
20260504040017 2 138 1.6 4.8 0.00 0.00 0.00 67 1002.3
20260504035517 2 145 1.6 4.8 0.00 0.00 0.00 67 1002.3
20260504035016 2 136 1.6 3.2 0.00 0.00 0.00 68 1002.4
20260504034516 2 136 1.6 3.2 0.00 0.00 0.00 67 1002.3
20260504034015 2 136 0.0 3.2 0.00 0.00 0.00 67 1002.4
20260504033515 2 136 0.0 3.2 0.00 0.00 0.00 68 1002.4
20260504033016 2 136 1.6 3.2 0.00 0.00 0.00 67 1002.3
20260504032516 2 136 0.0 3.2 0.00 0.00 0.00 67 1002.3
20260504032016 2 136 0.0 3.2 0.00 0.00 0.00 67 1002.4
20260504031515 2 136 0.0 3.2 0.00 0.00 0.00 67 1002.4
20260504031014 2 136 0.0 3.2 0.00 0.00 0.00 68 1002.4
20260504030514 2 136 0.0 3.2 0.00 0.03 0.00 68 1002.4
20260504030016 2 136 0.0 3.2 0.00 0.03 0.00 69 1002.5
20260504025514 2 136 1.6 3.2 0.00 0.03 0.00 69 1002.5
20260504025017 2 136 1.6 3.2 0.00 0.03 0.00 70 1002.6
20260504024514 2 136 1.6 4.8 0.00 0.03 0.00 70 1002.6
20260504024013 2 136 1.6 8.0 0.00 0.03 0.00 71 1002.6
20260504023513 2 136 3.2 8.0 0.00 0.03 0.00 70 1002.6
20260504023013 2 130 1.6 4.8 0.00 0.03 0.00 69 1002.7
20260504022513 2 132 3.2 4.8 0.00 0.03 0.00 70 1002.7
20260504022012 2 119 1.6 4.8 0.00 0.03 0.00 71 1002.8
20260504021512 2 119 1.6 4.8 0.00 0.03 0.00 70 1002.7
20260504021011 2 119 1.6 4.8 0.00 0.03 0.00 71 1002.8
20260504020511 2 128 3.2 4.8 0.00 0.03 0.00 71 1002.8
20260504020012 3 134 3.2 4.8 0.00 0.03 0.00 70 1002.8
20260504015511 2 143 1.6 4.8 0.00 0.03 0.00 70 1002.8
20260504015012 3 143 1.6 4.8 0.00 0.03 0.00 70 1002.8
20260504014512 3 143 0.0 3.2 0.00 0.03 0.00 70 1002.8
20260504014010 3 143 1.6 3.2 0.00 0.03 0.00 70 1002.8
20260504013516 3 143 1.6 3.2 0.00 0.03 0.00 69 1002.8
20260504013014 3 143 1.6 4.8 0.00 0.03 0.00 69 1002.8
20260504012510 3 143 1.6 4.8 0.00 0.03 0.00 69 1002.9
20260504012010 3 159 1.6 6.4 0.00 0.03 0.00 69 1002.8
20260504011510 3 137 1.6 4.8 0.00 0.03 0.00 69 1002.7
20260504011009 3 134 1.6 3.2 0.00 0.03 0.00 68 1002.7
20260504010509 4 123 1.6 3.2 0.00 0.05 0.00 67 1002.6
20260504010009 4 123 1.6 3.2 0.00 0.05 0.00 66 1002.6
20260504005510 5 123 1.6 3.2 0.00 0.05 0.00 65 1002.5
20260504005009 5 123 1.6 3.2 0.00 0.05 0.00 65 1002.5
20260504004524 5 123 1.6 3.2 0.00 0.05 0.00 63 1002.5
20260504004010 5 119 0.0 3.2 0.00 0.05 0.00 63 1002.5
20260504003509 5 119 0.0 3.2 0.00 0.05 0.00 63 1002.5
20260504003009 6 119 0.0 3.2 0.00 0.05 0.00 61 1002.5
20260504002508 6 119 1.6 4.8 0.00 0.05 0.00 60 1002.4
20260504002008 6 119 1.6 6.4 0.00 0.05 0.00 58 1002.4
20260504001521 7 155 0.0 4.8 0.00 0.05 0.00 54 1002.4
20260504001007 7 206 1.6 3.2 0.00 0.05 0.00 54 1002.4
20260504000509 7 242 0.0 4.8 0.00 0.05 0.00 52 1002.3
20260504000006 7 221 0.0 4.8 0.00 0.05 0.00 52 1002.4
20260503235506 7 178 0.0 4.8 0.00 0.05 0.00 53 1002.4
20260503235007 7 180 1.6 4.8 0.00 0.05 0.00 53 1002.3
20260503234510 8 202 0.0 4.8 0.00 0.05 0.00 52 1002.3
20260503234007 8 150 0.0 3.2 0.00 0.05 0.00 52 1002.2
20260503233509 8 171 0.0 4.8 0.00 0.05 0.00 51 1002.3
20260503233005 8 171 1.6 6.4 0.00 0.05 0.00 51 1002.2
20260503232507 8 177 0.0 4.8 0.00 0.05 0.00 51 1002.2
20260503232007 8 208 0.0 3.2 0.00 0.05 0.00 52 1002.1
20260503231505 8 208 0.0 3.2 0.00 0.05 0.00 54 1002.2
20260503231008 8 238 0.0 3.2 0.00 0.05 0.00 51 1002.2
20260503230506 8 333 0.0 4.8 0.00 0.08 0.00 51 1002.2
20260503230005 8 298 1.6 4.8 0.00 0.08 0.00 55 1002.2
20260503225508 8 274 0.0 6.4 0.00 0.08 0.00 54 1002.1
20260503225004 8 234 0.0 6.4 0.00 0.08 0.00 52 1002.2
20260503224505 8 325 0.0 4.8 0.00 0.08 0.00 53 1002.2
20260503224004 8 325 1.6 8.0 0.00 0.08 0.00 54 1002.2
20260503223505 8 285 3.2 8.0 0.00 0.08 0.00 50 1002.2
20260503223008 8 294 4.8 8.0 0.00 0.08 0.00 51 1002.3
20260503222505 8 278 3.2 8.0 0.00 0.08 0.00 52 1002.2
20260503222003 8 286 3.2 9.7 0.00 0.08 0.00 53 1002.2
20260503221503 8 273 1.6 12.9 0.00 0.08 0.00 52 1002.2
20260503221003 8 351 4.8 12.9 0.00 0.08 0.00 48 1002.3
20260503220502 9 320 4.8 9.7 0.00 0.08 0.00 51 1002.2
20260503220001 9 257 4.8 11.3 0.00 0.08 0.00 50 1002.2
20260503215500 8 293 3.2 6.4 0.00 0.08 0.00 48 1002.2
20260503215000 8 321 0.0 8.0 0.00 0.08 0.00 51 1002.2
20260503214601 8 331 3.2 8.0 0.00 0.08 0.00 50 1002.2
20260503214059 8 294 4.8 8.0 0.00 0.08 0.00 49 1002.2
20260503213600 8 284 3.2 6.4 0.00 0.08 0.00 49 1002.2
20260503213058 8 302 3.2 8.0 0.00 0.08 0.00 52 1002.2
20260503212559 8 311 1.6 9.7 0.00 0.08 0.00 51 1002.2
20260503212058 8 283 6.4 9.7 0.00 0.08 0.00 49 1002.2
20260503211558 8 306 1.6 6.4 0.00 0.08 0.00 52 1002.2
20260503211057 8 360 1.6 9.7 0.00 0.08 0.00 49 1002.2
20260503210558 8 319 4.8 9.7 0.00 0.08 0.00 50 1002.2
20260503210058 8 327 4.8 8.0 0.00 0.08 0.00 49 1002.2
20260503205557 8 298 1.6 17.7 0.00 0.08 0.00 49 1002.1
20260503205056 8 334 4.8 17.7 0.00 0.08 0.00 49 1002.2
20260503204555 8 311 3.2 12.9 0.00 0.08 0.00 50 1002.2
20260503204054 8 355 4.8 12.9 0.00 0.08 0.00 51 1002.2
20260503203555 8 332 3.2 16.1 0.00 0.08 0.00 50 1002.3
20260503203054 8 306 3.2 16.1 0.00 0.08 0.00 54 1002.2
20260503202554 8 262 3.2 14.5 0.00 0.08 0.00 51 1002.1
20260503202054 8 279 3.2 14.5 0.00 0.08 0.00 54 1002.2
20260503201553 8 330 3.2 14.5 0.00 0.08 0.00 54 1002.4
20260503201052 8 266 6.4 24.1 0.00 0.08 0.00 51 1002.3
20260503200550 8 350 6.4 24.1 0.00 0.08 0.00 54 1002.3
20260503200050 7 252 6.4 16.1 0.00 0.08 0.00 54 1002.3
20260503195550 7 232 8.0 14.5 0.00 0.08 0.00 56 1002.4
20260503195048 7 283 6.4 19.3 0.00 0.08 0.00 55 1002.5
20260503194601 7 302 9.7 19.3 0.00 0.08 0.00 56 1002.5
20260503194051 7 281 4.8 14.5 0.00 0.08 0.00 58 1002.6
20260503193549 7 309 6.4 22.5 0.00 0.08 0.00 57 1002.6
20260503193049 7 323 8.0 22.5 0.00 0.08 0.00 57 1002.7
20260503192547 7 300 8.0 22.5 0.00 0.08 0.00 56 1002.6
20260503192047 7 319 9.7 22.5 0.00 0.08 0.00 53 1002.6
20260503191551 8 303 9.7 19.3 0.00 0.08 0.00 53 1002.6
20260503191049 7 325 4.8 16.1 0.00 0.08 0.00 56 1002.6
20260503190545 7 38 4.8 14.5 0.00 0.08 0.00 55 1002.7
20260503190046 7 324 6.4 14.5 0.00 0.08 0.00 56 1002.7
20260503185544 7 292 4.8 14.5 0.00 0.08 0.00 54 1002.8
20260503185045 7 283 6.4 16.1 0.00 0.08 0.00 54 1002.8
20260503184544 7 284 4.8 16.1 0.00 0.08 0.00 55 1002.8
20260503184045 7 308 6.4 16.1 0.00 0.08 0.00 57 1002.9
20260503183544 7 252 8.0 16.1 0.00 0.08 0.00 56 1002.9
20260503183052 7 276 6.4 12.9 0.00 0.08 0.00 55 1002.8
20260503182543 7 319 6.4 12.9 0.00 0.08 0.00 58 1002.9
20260503182042 7 303 4.8 12.9 0.00 0.08 0.00 55 1002.9
20260503181557 7 309 4.8 14.5 0.00 0.08 0.00 55 1002.9
20260503181044 7 300 6.4 14.5 0.00 0.08 0.00 54 1003.0
20260503180541 7 288 3.2 12.9 0.00 0.08 0.00 57 1003.0
20260503180047 7 323 3.2 19.3 0.00 0.08 0.00 59 1003.0
20260503175540 7 258 3.2 22.5 0.00 0.08 0.00 57 1003.0
20260503175039 7 10 9.7 22.5 0.00 0.08 0.00 56 1003.1
20260503174547 7 336 8.0 19.3 0.00 0.08 0.00 55 1003.1
20260503174039 7 23 6.4 12.9 0.00 0.08 0.00 55 1003.3
20260503173539 7 312 6.4 14.5 0.00 0.08 0.00 54 1003.2
20260503173041 7 322 3.2 14.5 0.00 0.08 0.00 57 1003.3
20260503172539 7 316 4.8 14.5 0.00 0.08 0.00 56 1003.2
20260503172038 7 315 6.4 14.5 0.00 0.08 0.00 55 1003.2
20260503171538 7 326 8.0 16.1 0.00 0.08 0.00 57 1003.2
20260503171038 7 283 4.8 16.1 0.00 0.08 0.00 56 1003.3
20260503170538 7 343 8.0 16.1 0.00 0.08 0.00 55 1003.3
20260503150522 7 22 6.4 22.5 0.00 0.08 0.00 59 1004.0